Location: Albany
(35.0000°S, 118.0000°E)
Time: 20:26:43
(UTC-04:00)

ISS - All Passes

Search period start: 21 April 2018 00:00
Search period end: 01 May 2018 00:00
Orbit: 403 x 406 km, 51.6° (Epoch: 22 April)

Date Brightness Start Highest point End Pass type
(mag) Time Alt. Az. Time Alt. Az. Time Alt. Az.
21 Apr - 08:35:21 10° NW 08:38:39 69° SW 08:42:00 10° SE night (unlit)
21 Apr - 10:14:38 10° SW 10:15:40 11° SSW 10:16:43 10° S night (unlit)
21 Apr - 15:06:02 10° SSW 15:09:03 30° SE 15:12:01 10° E night (unlit)
21 Apr - 16:42:47 10° WSW 16:45:24 22° NW 16:48:00 10° N visible
22 Apr - 07:43:13 10° NNW 07:46:27 53° NE 07:49:44 10° ESE visible
22 Apr - 09:20:54 10° WSW 09:23:10 17° SSW 09:25:27 10° SSE night (unlit)
22 Apr - 14:14:15 10° SSW 14:16:38 18° SSE 14:19:01 10° ESE night (unlit)
22 Apr - 15:50:05 10° WSW 15:53:18 46° NW 15:56:28 10° NNE night (unlit)
23 Apr - 06:51:35 10° N 06:54:20 24° NE 06:57:07 10° ESE visible
23 Apr - 08:27:49 10° W 08:30:44 27° SW 08:33:40 10° SSE visible
23 Apr - 13:22:49 10° S 13:24:08 12° SSE 13:25:26 10° SE night (unlit)
23 Apr - 14:57:46 10° SW 15:01:06 78° SE 15:04:24 10° NE night (unlit)
24 Apr - 06:00:57 10° NNE 06:02:16 12° NE 06:03:36 10° ENE visible
24 Apr - 07:35:08 10° WNW 07:38:23 52° SW 07:41:40 10° SE visible
24 Apr - 14:05:39 10° SSW 14:08:48 37° SE 14:11:54 10° ENE night (unlit)
24 Apr - 15:42:49 10° W 15:45:02 17° NW 15:47:14 10° N night (unlit)
25 Apr - 06:42:49 10° NW 06:46:07 72° NE 06:49:27 10° SE visible
25 Apr - 08:20:59 10° WSW 08:22:56 14° SSW 08:24:52 10° S visible
25 Apr - 13:13:44 10° SSW 13:16:23 21° SSE 13:19:01 10° E night (unlit)
25 Apr - 14:49:52 10° WSW 14:52:56 35° NW 14:55:58 10° NNE night (unlit)
26 Apr - 05:50:56 10° NNW 05:53:55 32° NE 05:56:56 10° ESE visible
26 Apr - 07:27:42 10° W 07:30:26 23° SSW 07:33:11 10° SSE visible
26 Apr - 12:22:05 10° S 12:23:52 14° SSE 12:25:39 10° ESE night (unlit)
26 Apr - 13:57:23 10° SW 14:00:43 80° NW 14:04:01 10° NE night (unlit)
27 Apr - 04:59:46 10° NNE 05:01:48 15° NE 05:03:51 10° E daylight
27 Apr - 06:34:51 10° WNW 06:38:00 40° SW 06:41:12 10° SE visible
27 Apr - 13:05:10 10° SW 13:08:25 47° SE 13:11:37 10° ENE night (unlit)
27 Apr - 14:42:56 10° W 14:44:33 13° NW 14:46:09 10° NNW night (unlit)
28 Apr - 05:42:21 10° NW 05:45:40 86° SW 05:49:01 10° SE daylight
28 Apr - 07:21:04 10° SW 07:22:36 12° SSW 07:24:07 10° S visible
28 Apr - 12:13:08 10° SSW 12:16:00 25° SE 12:18:50 10° E night (unlit)
28 Apr - 13:49:34 10° WSW 13:52:26 27° NW 13:55:16 10° N night (unlit)
29 Apr - 04:50:16 10° NNW 04:53:25 41° NE 04:56:35 10° ESE daylight
29 Apr - 06:27:32 10° W 06:30:01 19° SSW 06:32:32 10° SSE visible
29 Apr - 11:21:20 10° S 11:23:29 16° SSE 11:25:37 10° ESE night (unlit)
29 Apr - 12:56:55 10° SW 13:00:13 59° NW 13:03:29 10° NE night (unlit)
30 Apr - 03:58:44 10° N 04:01:14 20° NE 04:03:43 10° E daylight
30 Apr - 05:34:30 10° WNW 05:37:32 32° SW 05:40:36 10° SSE daylight
30 Apr - 10:30:09 10° S 10:30:51 10° SSE 10:31:33 10° SE night (unlit)
30 Apr - 12:04:36 10° SW 12:07:55 62° SE 12:11:10 10° ENE night (unlit)
